Regional Weather Roundup
Issued by NWS

Home | Current Version | Previous Version | Graphics & Text | Print | Product List | Glossary On
Versions: 1 2 3 4 5 6 7 8 9 10 11 12 13 14 15 16 17 18 19 20 21 22 23 24 25 26 27 28 29 30 31 32 33 34 35 36 37 38 39 40 41 42 43 44 45 46 47 48 49 50
000
ASUS43 KMKX 231711
RWRWI

WISCONSIN REGIONAL WEATHER ROUNDUP
NATIONAL WEATHER SERVICE MILWAUKEE/SULLIVAN WI
1200 PM CDT TUE SEP 23 2014

NOTE: "FAIR" INDICATES FEW OR NO CLOUDS BELOW 12,000 FEET WITH NO
SIGNIFICANT WEATHER AND/OR OBSTRUCTIONS TO VISIBILITY.

WIZ001-002-006>008-014>016-023>028-231800-
NORTHWEST WISCONSIN

CITY           SKY/WX    TMP DP  RH WIND       PRES   REMARKS
SUPERIOR ARPT  SUNNY     70  56  60 S7        30.20F
ASHLAND        SUNNY     72  53  51 SW9       30.23F
HAYWARD        SUNNY     69  53  56 SW8       30.25F
SIREN          SUNNY     71  50  48 S12G17    30.23F
CUMBERLAND     SUNNY     68  50  52 S8        30.25F
RICE LAKE      SUNNY     68  53  59 S8        30.26F
CHETEK         SUNNY     69  54  58 S6        30.26S
LADYSMITH      SUNNY     69  53  56 SW7       30.28F
EAU CLAIRE     SUNNY     70  52  52 S9        30.26F
MENOMONIE      SUNNY     70  54  56 S8        30.26F
NEW RICHMOND   SUNNY     71  49  45 SW13G20   30.24S
OSCEOLA        SUNNY     71  52  51 S12       30.25F
$$

WIZ003>005-009-010-017-018-231800-
NORTH CENTRAL WISCONSIN

CITY           SKY/WX    TMP DP  RH WIND       PRES   REMARKS
MANITOWISH WTR SUNNY     68  50  53 W10       30.27S
ARBOR VITAE    SUNNY     69  52  54 SW8       30.27S
WOODRUFF       SUNNY     69  52  54 SW8       30.27S
RHINELANDER    SUNNY     68  51  54 W9        30.29S
EAGLE RIVER    SUNNY     69  49  50 W8        30.27S
LAND O LAKES   SUNNY     70  51  50 SW3       30.27S
PHILLIPS       SUNNY     68  52  56 SW6       30.26F
TOMAHAWK       SUNNY     69  51  51 CALM      30.28F
MEDFORD        SUNNY     67  51  54 SW6       30.29S
MERRILL        SUNNY     69  51  53 SW5       30.28F
$$

WIZ029-030-035-036-043>047-231800-
CENTRAL WISCONSIN

CITY           SKY/WX    TMP DP  RH WIND       PRES   REMARKS
WAUSAU         SUNNY     69  50  50 S8        30.28F
MOSINEE        SUNNY     68  52  56 SW6       30.30F
MARSHFIELD     SUNNY     69  52  54 SW7       30.29F
STEVENS POINT  SUNNY     68  51  53 W5        30.30S
WAUPACA        SUNNY     73  51  46 SW5       30.30S
WAUTOMA        SUNNY     72  53  51 W6        30.30F
WISC RAPIDS    SUNNY     70  53  54 SW7       30.31F
CAMP DOUGLAS   MOSUNNY   70  54  56 VRB6      30.30F
$$

WIZ011>013-019>022-031-037>040-048>050-231800-
NORTHEAST WISCONSIN

CITY           SKY/WX    TMP DP  RH WIND       PRES   REMARKS
ANTIGO         SUNNY     68  52  58 W8        30.29S
SHAWANO        SUNNY     72  54  53 W5        30.29S
OCONTO         SUNNY     70  55  57 W6        30.27F
STURGEON BAY   SUNNY     68  54  60 W6        30.29S
GREEN BAY      SUNNY     70  54  56 SW8       30.29S
MANITOWOC      SUNNY     71  53  52 W5        30.30S
APPLETON       MOSUNNY   70  52  52 SW6       30.31
CLINTONVILLE   SUNNY     72  50  46 SW7       30.29S
OSHKOSH        SUNNY     70  52  52 VRB5      30.30S
$$

WIZ032>034-041-042-053>061-231800-
SOUTHWEST WISCONSIN

CITY           SKY/WX    TMP DP  RH WIND       PRES   REMARKS
LA CROSSE      SUNNY     71  54  54 S5        30.29F
SPARTA         SUNNY     71  49  46 S9        30.30S
VIROQUA        SUNNY     68  50  51 S6        30.31S
BOSCOBEL       SUNNY     71  54  54 SW8       30.31F
PRAIRIE DU CHI SUNNY     68  49  51 S5        30.30F
PLATTEVILLE    SUNNY     69  48  46 S9        30.33F
$$

WIZ056-057-062-063-064-067-068-231800-
SOUTH CENTRAL WISCONSIN

CITY           SKY/WX    TMP DP  RH WIND       PRES   REMARKS
REEDSBURG      SUNNY     69  53  57 W6        30.31S
BARABOO/DELLS  SUNNY     71  48  44 SW3       30.31S
LONE ROCK      SUNNY     72  53  51 CALM      30.31F
MINERAL POINT  SUNNY     70  46  43 S12       30.33S
MADISON        MOSUNNY   70  49  47 VRB7      30.32F
MIDDLETON      SUNNY     72  46  38 SW6       30.32S
WATERTOWN      SUNNY     70  52  52 SW6       30.32R
MONROE         SUNNY     68  50  52 S9        30.33S
JANESVILLE     SUNNY     72  46  40 W10       30.33S
$$

WIZ051-052-058>065-066-070>072-231800-
SOUTHEAST WISCONSIN

CITY           SKY/WX    TMP DP  RH WIND       PRES   REMARKS
MILWAUKEE      MOSUNNY   70  49  47 SW7       30.32S
WAUKESHA       SUNNY     66  48  52 SW5       30.34R
MILWAUKEE/TIMM SUNNY     70  48  46 SW8       30.33S
RACINE         SUNNY     70  50  49 W7        30.34S
BURLINGTON     SUNNY     69  46  43 W3        30.34S
KENOSHA        SUNNY     69  51  52 SW8       30.34S
FOND DU LAC    SUNNY     70  52  52 CALM      30.31S
SHEBOYGAN      SUNNY     71  51  49 SW7       30.30S
WEST BEND      SUNNY     70  48  46 W8        30.31S
JUNEAU         SUNNY     68  53  60 S3        30.32F
$$

LSZ147-162-231800-
LAKE SUPERIOR

STATION/POSITION TIME  TEMP    WIND        PRES    WAVE
                       AIR SEA DIR/SP/G            HT/PER
                 (UTC) (F)     (DEG/KT/KT) (MB)    (FT/S)
W MID LAKE BUOY  1650   51 49  220/  8/ 10 1023.4S   1/ 3
DEVILS ISLAND    1700   59     250/  5/  7 1023.5F
PORT WING        1600   57     300/  5/  7 1023.4S
SAXON HARBOR     1600   70     210/  5/  8 1023.7S
$$

LMZ867-665-643>646-231800-
LAKE MICHIGAN

STATION/POSITION TIME  TEMP    WIND        PRES    WAVE
                       AIR SEA DIR/SP/G            HT/PER
                 (UTC) (F)     (DEG/KT/KT) (MB)    (FT/S)
CHAMBERS ISLAND  1600   62     190/  5/  8 1025.1S
S GREEN BAY BUOY 1600   59                 1026.2R
N MID LAKE BUOY  1650   58 57  200/  8/ 10 1025.2R   1/ 4
NORTHPORT PIER   1600   67     240/  4/  7 1024.7R
SISTER BAY       1512          280/  8/  9   N/A
KEWAUNEE LAKESHO 1600   68     260/  2/  5 1024.5R
SHEBOYGAN LAKESH 1700   55 51  160/ 12/ 12 1026.6S
PORT WASHINGTON  1640   65     170/  7/  8 1026.8S
ATWATER BUOY     1700   62     120/  6/  6 1027.6
S MID LAKE BUOY  1650   61 61  230/  8/ 10 1027.6S   2/ 4
KENOSHA   LAKESH 1700   68     270/  7/  9 1026.8S
$$

TC  - TEMPERATURE IN CELSIUS
VSB - VISIBILITY IN STATUTE MILES
WCI - WIND CHILL INDEX
HX  - HEAT INDEX




USA.gov is the U.S. government's official web portal to all federal, state and local government web resources and services.